FW5647 Weather Reports


time (UTC)temp
F
wind
direction
speed
knots
gust
knots
rain 1hr
in
rain 24hr
in
rain mn
in
humidity
%
barometer
mb
20260905201551 78 105 2.6 6.1 0.00 0.00 0.00 64 1015.3
20260905200045 78 98 0.9 3.5 0.00 0.00 0.00 67 1015.6
20260905194544 79 356 0.0 2.6 0.00 0.00 0.00 68 1015.6
20260905193044 77 150 0.9 3.5 0.00 0.00 0.00 67 1015.6
20260905191541 77 72 3.5 7.0 0.00 0.00 0.00 68 1015.5
20260905190038 77 39 0.9 5.2 0.00 0.00 0.00 68 1015.8
20260905184552 77 50 1.7 5.2 0.00 0.00 0.00 70 1015.8
20260905183042 77 87 1.7 4.3 0.00 0.00 0.00 71 1016.0
20260905181604 77 32 1.7 4.3 0.00 0.00 0.00 69 1015.9
20260905180046 77 51 1.7 7.0 0.00 0.00 0.00 70 1015.9
20260905174543 77 130 1.7 5.2 0.00 0.00 0.00 71 1015.8
20260905173053 76 121 2.6 5.2 0.00 0.00 0.00 70 1015.8
20260905171547 76 28 2.6 7.0 0.00 0.00 0.00 70 1015.8
20260905170043 77 36 1.7 2.6 0.00 0.00 0.00 70 1016.0
20260905164540 76 202 1.7 5.2 0.00 0.00 0.00 71 1016.1
20260905163042 75 220 2.6 5.2 0.00 0.00 0.00 72 1016.2
20260905161559 75 35 1.7 6.1 0.00 0.00 0.00 74 1016.1
20260905160045 75 143 2.6 7.0 0.00 0.00 0.00 75 1016.3
20260905154544 73 305 1.7 4.3 0.00 0.15 0.00 75 1016.2
20260905153042 73 130 2.6 7.0 0.00 0.15 0.00 76 1016.1
20260905151542 72 46 1.7 4.3 0.00 0.15 0.00 77 1015.9
20260905150041 72 80 2.6 6.1 0.00 0.15 0.00 78 1015.7
20260905144539 71 127 2.6 5.2 0.00 0.31 0.00 81 1015.6
20260905143042 69 116 0.0 3.5 0.00 0.31 0.00 87 1015.4
20260905141541 68 79 0.0 3.5 0.00 0.31 0.00 87 1015.3
20260905140041 68 0 0.0 1.7 0.00 0.31 0.00 87 1015.3
20260905134539 68 103 0.0 2.6 0.00 1.04 0.00 88 1015.3
20260905133039 67 97 1.7 5.2 0.00 1.04 0.00 88 1015.2
20260905131539 67 86 0.9 2.6 0.00 1.04 0.00 89 1015.4
20260905130040 67 0 0.0 0.0 0.00 1.04 0.00 90 1015.6
20260905124539 67 118 0.0 0.9 0.00 1.75 0.00 89 1015.4
20260905123042 67 116 0.0 1.7 0.00 1.75 0.00 89 1015.6
20260905121541 66 0 0.0 4.3 0.00 1.75 0.00 89 1015.5
20260905120041 66 125 1.7 4.3 0.00 1.75 0.00 89 1015.0
20260905114540 66 98 1.7 5.2 0.00 1.76 0.00 89 1014.8
20260905113043 66 97 0.9 3.5 0.00 1.76 0.00 91 1014.9
20260905111544 66 0 0.9 3.5 0.00 1.76 0.00 91 1014.8
20260905110040 66 79 1.7 3.5 0.00 1.76 0.00 93 1014.7
20260905104555 67 122 0.0 1.7 0.00 1.78 0.00 94 1014.8
20260905103041 67 105 0.0 1.7 0.00 1.78 0.00 95 1014.7
20260905101540 67 115 0.9 2.6 0.00 1.78 0.00 95 1014.6
20260905100042 67 0 0.0 0.9 0.00 1.78 0.00 95 1014.8
20260905094541 67 145 0.0 1.7 0.00 1.78 0.00 95 1014.5
20260905093040 67 112 0.9 1.7 0.00 1.78 0.00 95 1014.5
20260905091552 67 0 0.0 0.9 0.00 1.78 0.00 96 1014.7
20260905090041 67 108 0.0 0.9 0.00 1.78 0.00 96 1014.5
20260905084604 67 146 0.0 0.0 0.00 1.78 0.00 96 1014.8
20260905083040 67 141 0.0 0.9 0.00 1.78 0.00 96 1014.5
20260905081539 67 130 0.0 0.9 0.00 1.78 0.00 96 1014.2
20260905080043 68 0 0.0 0.9 0.00 1.78 0.00 96 1014.1
20260905074545 68 0 0.0 1.7 0.00 1.78 0.00 96 1014.5
20260905073042 68 0 0.0 0.9 0.00 1.78 0.00 96 1014.2
20260905071546 68 0 0.0 0.9 0.00 1.78 0.00 96 1014.3
20260905070104 68 120 0.0 0.9 0.00 1.78 0.00 96 1014.4
20260905064543 69 0 0.0 0.0 0.00 1.78 0.00 96 1014.1
20260905063039 69 0 0.0 0.0 0.00 1.78 0.00 96 1014.1
20260905061540 69 134 0.0 0.9 0.00 1.78 0.00 96 1014.1
20260905060041 69 0 0.0 0.9 0.00 1.78 0.00 96 1014.4
20260905054550 69 0 0.0 1.7 0.00 1.78 0.00 96 1014.4
20260905053049 70 0 0.0 0.9 0.00 1.78 0.00 96 1014.4
20260905051547 70 0 0.0 0.0 0.00 1.78 0.00 96 1014.5
20260905050047 70 0 0.0 0.9 0.00 1.78 0.00 96 1014.5
20260905044549 70 104 0.0 0.9 0.00 1.78 0.00 96 1014.4
20260905043044 69 123 0.9 1.7 0.00 1.78 0.00 95 1014.9
20260905041554 69 0 0.0 0.0 0.00 1.78 0.00 95 1014.6
20260905040056 70 0 0.0 0.0 0.00 1.78 0.00 95 1014.7
20260905034549 70 0 0.0 0.0 0.00 1.78 1.78 95 1015.0
20260905033052 70 117 0.0 0.9 0.00 1.78 1.78 95 1015.0
20260905031549 70 0 0.0 0.0 0.00 1.78 1.78 95 1015.3
20260905030047 70 0 0.0 0.0 0.00 1.78 1.78 95 1015.6
20260905024548 70 0 0.0 0.0 0.00 1.78 1.78 95 1015.6
20260905023047 70 0 0.0 0.0 0.00 1.78 1.78 95 1015.5
20260905021548 70 0 0.0 0.0 0.00 1.78 1.78 95 1015.4
20260905020055 70 0 0.0 0.0 0.00 1.78 1.78 94 1015.2
20260905014541 70 0 0.0 0.0 0.00 1.78 1.78 94 1015.3
20260905013040 70 0 0.0 0.0 0.00 1.78 1.78 94 1015.4
20260905011548 70 0 0.0 0.0 0.00 1.78 1.78 93 1015.4
20260905004543 71 0 0.0 0.0 0.00 1.78 1.78 92 1015.2
20260905003044 72 0 0.0 0.0 0.00 1.78 1.78 92 1015.1
20260905001544 73 0 0.0 0.0 0.00 1.78 1.78 91 1015.1
20260905000044 74 0 0.0 0.0 0.00 1.78 1.78 90 1015.1
20260904234548 75 0 0.0 0.0 0.00 1.78 1.78 88 1015.1
20260904233047 76 0 0.0 0.0 0.00 1.78 1.78 88 1015.1
20260904231549 76 0 0.0 0.0 0.00 1.78 1.78 87 1014.7
20260904230046 76 0 0.0 0.0 0.00 1.78 1.78 87 1014.6
20260904224601 76 0 0.0 0.0 0.00 1.78 1.78 86 1014.6
20260904223042 76 0 0.0 1.7 0.00 1.78 1.78 86 1014.4
20260904221544 76 290 0.0 3.5 0.00 1.78 1.78 85 1014.3
20260904220048 76 314 0.0 3.5 0.00 1.78 1.78 85 1014.1
20260904214546 75 0 0.0 3.5 0.00 1.78 1.78 85 1014.3
20260904213043 75 279 0.9 5.2 0.00 1.78 1.78 85 1014.3
20260904211555 76 293 1.7 7.0 0.00 1.78 1.78 85 1014.3
20260904210053 76 288 0.0 3.5 0.00 1.78 1.78 85 1013.9
20260904204547 75 258 1.7 4.3 0.00 1.88 1.78 87 1014.1
20260904203045 74 260 0.9 3.5 0.00 1.88 1.78 91 1014.0